Location: Morlupo
(42.1333°N, 12.5000°E)
Time: 13:17:58
(UTC+00:00)

Cosmos 158 Rocket - Visible Passes

Search period start: 16 January 2021 00:00
Search period end: 26 January 2021 00:00
Orbit: 698 x 793 km, 74.0° (Epoch: 16 January)

Date Brightness Start Highest point End Pass type
(mag) Time Alt. Az. Time Alt. Az. Time Alt. Az.
16 Jan 5.4 17:50:48 10° N 17:53:21 22° NNE 17:53:21 22° NNE visible
16 Jan 6.4 19:32:02 10° NW 19:33:13 16° NW 19:33:13 16° NW visible
17 Jan 5.5 17:08:05 10° NNE 17:11:12 16° NE 17:11:32 15° ENE visible
17 Jan 5.0 18:48:06 10° NNW 18:51:25 39° NNW 18:51:25 39° NNW visible
18 Jan 4.1 18:04:30 10° N 18:09:44 54° ENE 18:10:02 53° E visible
18 Jan 6.4 19:47:09 10° NW 19:49:58 19° W 19:49:58 19° W visible
19 Jan 4.8 17:21:13 10° N 17:25:52 29° ENE 17:29:26 15° ESE visible
19 Jan 5.3 19:02:36 10° NW 19:07:30 38° WSW 19:09:28 28° SW visible
20 Jan 5.5 16:38:24 10° NNE 16:41:48 17° NE 16:45:14 10° E visible
20 Jan 4.2 18:18:38 10° NNW 18:23:58 74° WSW 18:29:20 10° S visible
21 Jan 4.0 17:35:00 10° NNW 17:40:17 59° ENE 17:45:36 10° SSE visible
21 Jan 6.6 19:17:51 10° NW 19:21:21 18° W 19:24:52 10° SW visible
22 Jan 4.7 16:51:39 10° N 16:56:26 32° ENE 17:01:13 10° SE visible
22 Jan 5.6 18:33:12 10° NW 18:38:00 34° W 18:42:49 10° SSW visible
23 Jan 4.4 17:49:10 10° NNW 17:54:30 67° WSW 17:59:50 10° S visible
24 Jan 4.0 17:05:29 10° NNW 17:10:50 65° ENE 17:16:11 10° SSE visible
24 Jan 6.9 18:48:36 10° WNW 18:51:50 16° W 18:55:04 10° SW visible
25 Jan 5.9 18:03:48 10° NW 18:08:30 31° W 18:13:11 10° SSW visible
